Weather History for Medford, WI

Change the Weather History Date:

Thursday, June 27, 2013

  Actual Average Record
Temperature  
Mean Temperature 73 °F -  
Max Temperature 82 °F 78 °F 91 °F (2005)
Min Temperature 64 °F 54 °F 36 °F (1992)
Cooling Degree Days 8    
Growing Degree Days 23 (Base 50)    
Moisture  
Dew Point 64 °F    
Average Humidity 76    
Maximum Humidity 100    
Minimum Humidity 48    
Precipitation  
Precipitation 0.00 in - - ()
Sea Level Pressure  
Sea Level Pressure 29.77 in    
Wind  
Wind Speed 5 mph (West)    
Max Wind Speed 21 mph    
Max Gust Speed 28 mph    
Visibility 8 miles    
Events Fog , Rain    
Averages and records for this station are not official NWS values.
T = Trace of Precipitation, MM = Missing Value Source: NWS Daily Summary

Daily Weather History Graph

Daily Weather History Graph

Search for Another Location

Airport:

Trip Planner

Search our weather history database for the weather conditions in past years. The results will help you decide how hot, cold, wet, or windy it might be!

Date:

Astronomy

Jun. 27, 2013 Rise Set
Actual Time 5:16 AM CDT 8:52 PM CDT
Civil Twilight 4:38 AM CDT 9:29 PM CDT
Nautical Twilight 3:48 AM CDT 10:19 PM CDT
Astronomical Twilight 2:42 AM CDT 11:25 PM CDT
Moon 11:33 PM CDT (6/27) 10:31 AM CDT (6/27)
Length of Visible Light 16h 51m
Length of Day
15h 36m
Waning Gibbous, 76% of the Moon is Illuminated
Jun 27
Waning Gibbous
Jun 29
Last Quarter
Jul 8
New
Jul 15
First Quarter
Jul 22
Full

Hourly Weather History & Observations

Time (CDT) Temp. Heat Index Dew Point Humidity Pressure Visibility Wind Dir Wind Speed Gust Speed Precip Events Conditions
12:15 AM 68.0 °F - 66.2 °F 94% 29.79 in 0.2 mi Calm Calm - N/A Fog Fog
12:35 AM 66.2 °F - 66.2 °F 100% 29.79 in 0.2 mi WSW 4.6 mph - N/A Fog Fog
1:15 AM 68.0 °F - 66.2 °F 94% 29.79 in 10.0 mi West 4.6 mph - N/A   Clear
1:35 AM 66.2 °F - 66.2 °F 100% 29.79 in 10.0 mi Calm Calm - N/A   Clear
1:55 AM 66.2 °F - 64.4 °F 94% 29.79 in 4.0 mi Calm Calm - N/A   Clear
2:15 AM 66.2 °F - 64.4 °F 94% 29.79 in 4.0 mi WSW 3.5 mph - N/A   Clear
2:35 AM 66.2 °F - 64.4 °F 94% 29.79 in 5.0 mi Calm Calm - N/A   Clear
2:55 AM 66.2 °F - 64.4 °F 94% 29.79 in 3.0 mi WNW 3.5 mph - N/A   Scattered Clouds
3:15 AM 66.2 °F - 64.4 °F 94% 29.80 in 0.5 mi Calm Calm - N/A Fog Fog
3:35 AM 64.4 °F - 64.4 °F 100% 29.80 in 0.5 mi WNW 3.5 mph - N/A Fog Fog
3:55 AM 66.2 °F - 64.4 °F 94% 29.80 in 1.5 mi Calm Calm - N/A   Overcast
4:15 AM 66.2 °F - 64.4 °F 94% 29.80 in 0.2 mi Calm Calm - N/A Fog Fog
4:35 AM 66.2 °F - 66.2 °F 100% 29.80 in 0.2 mi Calm Calm - N/A Fog Fog
4:55 AM 66.2 °F - 66.2 °F 100% 29.80 in 0.2 mi Calm Calm - N/A Fog Fog
5:15 AM 66.2 °F - 64.4 °F 94% 29.80 in 0.2 mi Calm Calm - N/A Fog Fog
5:35 AM 66.2 °F - 64.4 °F 94% 29.81 in 0.2 mi Calm Calm - N/A Fog Fog
5:55 AM 66.2 °F - 64.4 °F 94% 29.81 in 0.2 mi Calm Calm - N/A Fog Fog
6:15 AM 66.2 °F - 64.4 °F 94% 29.81 in 0.2 mi Calm Calm - N/A Fog Fog
6:35 AM 66.2 °F - 64.4 °F 94% 29.81 in 0.2 mi Calm Calm - N/A Fog Fog
6:55 AM 66.2 °F - 66.2 °F 100% 29.81 in 5.0 mi Calm Calm - N/A   Scattered Clouds
7:15 AM 69.8 °F - 68.0 °F 94% 29.81 in 10.0 mi Calm Calm - N/A   Clear
7:55 AM 69.8 °F - 68.0 °F 94% 29.80 in 10.0 mi Calm Calm - N/A   Clear
8:15 AM 69.8 °F - 68.0 °F 94% 29.81 in 10.0 mi West 4.6 mph - N/A   Scattered Clouds
8:35 AM 69.8 °F - 68.0 °F 94% 29.83 in 10.0 mi WNW 8.1 mph - N/A Rain Light Rain
9:55 AM 73.4 °F - 68.0 °F 83% 29.80 in 10.0 mi Calm Calm - N/A   Scattered Clouds
10:15 AM 75.2 °F - 68.0 °F 78% 29.78 in 10.0 mi SW 3.5 mph - N/A   Clear
10:35 AM 75.2 °F - 68.0 °F 78% 29.78 in 10.0 mi SW 5.8 mph - N/A   Clear
10:55 AM 75.2 °F - 66.2 °F 73% 29.78 in 10.0 mi SW 9.2 mph - N/A   Clear
11:15 AM 77.0 °F - 68.0 °F 74% 29.78 in 10.0 mi SW 9.2 mph - N/A   Scattered Clouds
11:35 AM 77.0 °F - 66.2 °F 69% 29.78 in 10.0 mi West 4.6 mph - N/A   Overcast
11:55 AM 77.0 °F - 66.2 °F 69% 29.78 in 10.0 mi WSW 4.6 mph - N/A   Mostly Cloudy
12:15 PM 78.8 °F - 66.2 °F 65% 29.77 in 10.0 mi West 8.1 mph - N/A   Mostly Cloudy
12:35 PM 78.8 °F - 66.2 °F 65% 29.77 in 10.0 mi WSW 8.1 mph - N/A   Mostly Cloudy
1:15 PM 80.6 °F 83.2 °F 68.0 °F 65% 29.76 in 10.0 mi WSW 10.4 mph - N/A   Scattered Clouds
1:35 PM 80.6 °F 83.2 °F 68.0 °F 65% 29.76 in 10.0 mi West 9.2 mph - N/A   Scattered Clouds
1:55 PM 80.6 °F 83.2 °F 68.0 °F 65% 29.75 in 10.0 mi West 15.0 mph 18.4 mph N/A   Scattered Clouds
2:15 PM 80.6 °F 83.9 °F 69.8 °F 70% 29.75 in 10.0 mi West 9.2 mph 17.3 mph N/A   Scattered Clouds
2:35 PM 80.6 °F 83.2 °F 68.0 °F 65% 29.74 in 10.0 mi West 16.1 mph - N/A   Mostly Cloudy
2:55 PM 80.6 °F 82.7 °F 66.2 °F 61% 29.74 in 10.0 mi West 16.1 mph 21.9 mph N/A   Scattered Clouds
3:15 PM 82.4 °F 84.6 °F 66.2 °F 58% 29.73 in 10.0 mi West 17.3 mph 24.2 mph N/A   Scattered Clouds
3:35 PM 82.4 °F 83.4 °F 62.6 °F 51% 29.73 in 10.0 mi West 16.1 mph 27.6 mph N/A   Scattered Clouds
3:55 PM 82.4 °F 82.9 °F 60.8 °F 48% 29.73 in 10.0 mi West 15.0 mph 26.5 mph N/A   Scattered Clouds
4:15 PM 82.4 °F 82.9 °F 60.8 °F 48% 29.73 in 10.0 mi West 18.4 mph 27.6 mph N/A   Scattered Clouds
4:35 PM 82.4 °F 83.4 °F 62.6 °F 51% 29.72 in 10.0 mi WNW 12.7 mph 21.9 mph N/A   Scattered Clouds
4:55 PM 82.4 °F 82.9 °F 60.8 °F 48% 29.72 in 10.0 mi West 18.4 mph 26.5 mph N/A   Scattered Clouds
5:15 PM 80.6 °F 81.5 °F 60.8 °F 51% 29.72 in 10.0 mi West 19.6 mph 27.6 mph N/A   Scattered Clouds
5:35 PM 80.6 °F 81.8 °F 62.6 °F 54% 29.73 in 10.0 mi WNW 11.5 mph 24.2 mph N/A   Mostly Cloudy
5:55 PM 78.8 °F - 60.8 °F 54% 29.72 in 10.0 mi WNW 16.1 mph 23.0 mph N/A   Scattered Clouds
6:15 PM 78.8 °F - 60.8 °F 54% 29.73 in 10.0 mi WNW 20.7 mph 26.5 mph N/A   Scattered Clouds
6:35 PM 80.6 °F 81.5 °F 60.8 °F 51% 29.73 in 10.0 mi WNW 18.4 mph 25.3 mph N/A   Scattered Clouds
6:55 PM 78.8 °F - 60.8 °F 54% 29.73 in 10.0 mi WNW 12.7 mph 20.7 mph N/A   Scattered Clouds
7:15 PM 78.8 °F - 60.8 °F 54% 29.73 in 10.0 mi WNW 15.0 mph 24.2 mph N/A   Clear
7:35 PM 78.8 °F - 60.8 °F 54% 29.74 in 10.0 mi WNW 13.8 mph 19.6 mph N/A   Clear
7:55 PM 77.0 °F - 60.8 °F 57% 29.74 in 10.0 mi WNW 13.8 mph 18.4 mph N/A   Clear
8:15 PM 75.2 °F - 60.8 °F 61% 29.75 in 10.0 mi WNW 11.5 mph - N/A   Scattered Clouds
8:35 PM 75.2 °F - 60.8 °F 61% 29.75 in 10.0 mi WNW 11.5 mph - N/A   Scattered Clouds
8:55 PM 71.6 °F - 60.8 °F 69% 29.75 in 10.0 mi WNW 5.8 mph - N/A   Clear
9:15 PM 71.6 °F - 60.8 °F 69% 29.76 in 10.0 mi WNW 6.9 mph - N/A   Clear
9:35 PM 71.6 °F - 60.8 °F 69% 29.76 in 10.0 mi ENE 4.6 mph - N/A   Clear
9:55 PM 68.0 °F - 60.8 °F 78% 29.76 in 10.0 mi Calm Calm - N/A   Clear
10:15 PM 68.0 °F - 60.8 °F 78% 29.76 in 10.0 mi Calm Calm - N/A   Clear
10:35 PM 68.0 °F - 60.8 °F 78% 29.75 in 10.0 mi Calm Calm - N/A   Clear
10:55 PM 66.2 °F - 60.8 °F 83% 29.75 in 10.0 mi Calm Calm - N/A   Clear
11:15 PM 64.4 °F - 59.0 °F 83% 29.75 in 10.0 mi Calm Calm - N/A   Clear
11:35 PM 66.2 °F - 59.0 °F 78% 29.75 in 10.0 mi WNW 6.9 mph - N/A   Clear
11:55 PM 66.2 °F - 57.2 °F 73% 29.75 in 10.0 mi West 5.8 mph - N/A   Clear